Location: Rooftop Observatory
(39.0308°N, 87.1711°W)
Time: 01:08:25
(UTC-05:00)

Daily predictions for brighter satellites

Satellite Brightness Start Highest point End
(mag) Time Altitude Azimuth Time Altitude Azimuth Time Altitude Azimuth
Cosmos 2221 3.6 00:00:37 10° NNW 00:04:11 36° WNW 00:04:11 36° WNW
Meteor 1-27 4.3 00:02:00 10° N 00:07:48 67° E 00:08:18 63° ESE
Cosmos 1703 4.4 00:09:11 41° N 00:09:11 41° N 00:11:49 10° N
SL-19 R/B 4.1 00:04:49 10° NNE 00:10:23 79° WNW 00:10:48 74° WSW
Cosmos 1709 Rocket 4.3 00:06:38 10° NNW 00:12:41 53° W 00:13:42 48° WSW
ALOS 2 3.0 00:16:07 60° NNE 00:16:07 60° NNE 00:19:48 10° N
Cosmos 1992 Rocket 4.0 00:12:00 10° NNW 00:17:09 72° ENE 00:17:09 72° ENE
Terra 4.3 00:18:29 11° W 00:19:01 11° W 00:20:30 10° WNW
CZ-4B R/B 3.6 00:16:09 10° NNE 00:21:12 70° E 00:21:12 70° E
Cosmos 2074 Rocket 3.9 00:17:53 10° N 00:24:09 78° E 00:24:52 69° SE
Cosmos 2369 Rocket 4.3 00:26:05 14° E 00:26:05 14° E 00:28:13 10° ENE
NOSS 3-2 (C) 4.0 00:18:42 10° NW 00:26:25 83° WSW 00:28:32 55° SSE
Cosmos 2297 3.6 00:28:26 81° ESE 00:28:26 81° ESE 00:34:09 10° NNE
CZ-4C R/B 4.3 00:31:46 47° NNW 00:31:46 47° NNW 00:34:38 10° NNW
Cosmos 2058 3.8 00:36:01 47° N 00:36:01 47° N 00:39:04 10° N
Cosmos 407 Rocket 3.8 00:40:19 54° ENE 00:40:19 54° ENE 00:44:43 10° NNE
Cosmos 2082 Rocket 2.1 00:34:57 10° NNW 00:40:42 88° ENE 00:40:50 86° SE
Cosmos 1809 Rocket 4.3 00:35:08 10° N 00:41:14 81° E 00:41:45 74° SE
Cosmos 1190 Rocket 4.1 00:48:01 68° ENE 00:48:01 68° ENE 00:52:47 10° NNE
Cosmos 2327 Rocket 4.3 00:42:46 10° N 00:49:00 83° W 00:49:37 73° SSW
Cosmos 1610 Rocket 4.3 00:44:00 10° N 00:50:18 82° E 00:50:55 73° SSE
ATLAS 5 CENTAUR R/B 2.4 00:51:43 48° NW 00:51:43 48° NW 00:56:26 10° NNE
NOSS 3-4 (A) 4.5 00:48:51 25° WSW 00:51:56 41° NW 00:57:59 10° NNE
NOSS 3-4 (C) 4.5 00:48:59 25° W 00:52:01 42° NW 00:58:05 10° NNE
Cosmos 1515 Rocket 4.2 00:47:36 10° N 00:51:05 55° N 00:51:05 55° N
MOS 1 Rocket 4.4 00:48:20 10° NNE 00:52:24 36° E 00:52:24 36° E
Meteor 2-10 Rocket 3.6 00:48:25 10° N 00:53:22 68° ENE 00:53:22 68° ENE
Cosmos 1833 Rocket 2.8 00:48:48 10° NNW 00:54:01 61° W 00:54:01 61° W
H-2A R/B 3.1 00:57:47 38° NW 00:57:47 38° NW 01:00:31 10° NNW
Cosmos 2184 Rocket 4.1 00:50:26 10° NNW 00:56:40 61° W 00:57:16 58° WSW
Cosmos 1151 Rocket 3.8 00:57:36 10° NNW 01:00:46 47° NNW 01:00:46 47° NNW
Cosmos 2228 Rocket 3.7 00:58:04 10° N 01:01:36 54° NNW 01:01:36 54° NNW
Cosmos 2154 Rocket 3.9 00:56:38 10° N 01:03:02 86° E 01:03:48 71° SSE
Cosmos 2181 Rocket 4.4 01:02:48 47° ESE 01:03:39 50° E 01:09:42 10° NNE
Cosmos 2341 Rocket 4.2 01:04:12 10° N 01:10:31 65° E 01:11:37 56° SE
USA 234 3.7 01:06:18 10° NE 01:12:42 59° NW 01:16:09 28° WSW
CENTAUR R/B 3.1 01:05:12 10° NW 01:13:19 84° WSW 01:16:04 49° SSE
deb Chang Zheng 4 4.3 01:09:22 10° N 01:13:03 50° NW 01:13:03 50° NW
Meteor 2-14 Rocket 4.3 01:08:50 10° NNW 01:14:52 72° W 01:15:17 69° SW
ADEOS Rocket 4.1 01:15:29 10° N 01:20:35 33° WNW 01:22:17 28° W
Cosmos 1943 Rocket 3.1 01:23:39 33° ESE 01:23:39 33° ESE 01:28:32 10° NE
Cosmos 1892 4.3 01:25:36 30° NE 01:25:36 30° NE 01:27:57 10° NNE
Mayak 1.1 01:23:18 10° NNW 01:25:32 14° WNW 01:25:43 14° WNW
Cosmos 1023 Rocket 4.4 01:27:46 82° NNE 01:27:46 82° NNE 01:32:39 10° NNE
RESURS DK-1 4.1 01:29:53 25° NW 01:29:53 25° NW 01:33:14 10° N
BREEZE-M R/B 4.5 01:24:34 10° WNW 01:30:10 58° SW 01:31:08 54° S
Cosmos 962 Rocket 4.3 01:25:22 10° N 01:31:36 83° W 01:32:21 70° SSW
BREEZE-M DEB (TANK) 4.4 01:34:08 53° SSE 01:34:42 55° SSE 01:38:33 10° ENE
Meteor 2-8 Rocket 4.3 01:35:25 70° SSW 01:36:13 85° W 01:42:24 10° N
SL-8 Rocket 4.1 01:31:18 10° N 01:37:34 70° E 01:38:56 54° SE
Cosmos 1295 Rocket 4.4 01:32:58 10° N 01:39:10 76° W 01:39:58 66° SSW
CZ-2D R/B 4.1 01:38:47 10° NE 01:42:17 18° E 01:43:42 16° ESE
Meteor 2-3 Rocket 4.5 01:41:43 38° ESE 01:42:44 41° E 01:48:07 10° NNE
Cosmos 1805 Rocket 3.9 01:44:13 62° NNW 01:44:13 62° NNW 01:47:57 10° N
Timation 2 Rocket 4.4 01:37:58 10° NNW 01:44:38 66° ENE 01:47:40 35° SE
SL-16 R/B 4.1 01:43:58 12° ESE 01:48:45 29° ENE 01:53:53 10° N
Cosmos 371 Rocket 3.7 01:49:07 10° NNW 01:53:11 52° WNW 01:53:11 52° WNW
Cosmos 1741 Rocket 4.1 01:55:01 62° SE 01:55:21 64° ESE 02:00:36 10° NNE
BREEZE M DEB (TANK) 4.5 01:45:12 10° W 01:56:05 40° NNW 01:59:37 10° NE
COSMOS 2487 4.3 01:53:09 10° NNW 01:54:57 28° NNW 01:54:57 28° NNW
Sich 1 3.2 01:57:34 70° N 01:57:34 70° N 02:01:29 10° N
Cosmos 2366 rocket 3.9 01:56:31 10° N 02:02:42 83° E 02:04:12 54° SSE
CZ-4B R/B 3.1 02:04:07 30° NNE 02:04:07 30° NNE 02:06:00 10° N
CZ-4C R/B 4.4 02:09:48 34° NW 02:09:48 34° NW 02:12:04 10° NNW
Cosmos 2369 Rocket 2.1 02:07:52 61° WSW 02:08:44 74° WNW 02:14:25 10° NNE
Cosmos 1707 Rocket 3.8 02:04:30 10° NNW 02:08:24 62° NW 02:08:24 62° NW
PSLV R/B 4.4 02:06:49 10° N 02:11:16 42° WNW 02:11:26 42° WNW
Cosmos 1633 Rocket 3.0 02:13:17 75° NW 02:13:17 75° NW 02:17:31 10° N
Cosmos 1959 Rocket 4.5 02:08:36 10° N 02:14:57 73° W 02:16:25 53° SSW
Cosmos 1470 Rocket 3.9 02:16:49 57° ESE 02:17:06 58° E 02:21:31 10° NNE
Resurs 1-4 Rocket 2.9 02:16:39 10° NNE 02:21:41 42° E 02:23:17 33° SE
Cosmos 2082 Rocket 4.5 02:22:27 10° W 02:22:39 10° W 02:22:39 10° W
Cosmos 1933 4.4 02:22:45 10° NNW 02:25:38 35° WNW 02:25:38 35° WNW
Meteor 2-15 4.3 02:25:28 52° SSW 02:27:06 86° W 02:33:12 10° N
SL-08 R/B 4.4 02:22:04 10° N 02:28:10 73° W 02:29:48 50° SSW
Cosmos 1666 Rocket 4.5 02:34:25 35° WNW 02:34:25 35° WNW 02:38:16 10° N
Cosmos 1606 3.0 02:30:44 10° N 02:34:30 60° E 02:34:41 59° E
H-2A R/B 2.9 02:33:37 10° NNE 02:37:31 46° E 02:37:55 44° ESE
Cosmos 1570 Rocket 3.9 02:33:27 10° NNW 02:38:45 87° WSW 02:40:22 46° SSE
Cosmos 1933 Rocket 3.4 02:39:11 72° S 02:39:36 86° E 02:43:59 10° N
Cosmos 2263 4.5 02:39:07 43° WSW 02:40:34 56° WNW 02:46:06 10° NNE
Cosmos 1825 2.2 02:42:06 69° NW 02:42:06 69° NW 02:45:39 10° N
GP-B 3.0 02:42:21 10° N 02:46:49 78° W 02:47:26 63° SSW
Meteor 1-26 Rocket 4.5 02:43:13 10° NNW 02:48:45 51° W 02:49:59 43° SW
Cosmos 1833 4.2 02:45:14 10° NNW 02:50:50 77° ENE 02:54:53 19° SSE
Cosmos 2242 Rocket 3.5 02:46:35 10° NNW 02:51:02 65° W 02:51:34 59° SW
Cosmos 1782 2.8 02:48:16 10° N 02:52:15 76° E 02:52:57 58° SSE
AQUA 3.7 02:48:17 10° NNE 02:53:04 87° W 02:54:18 51° SSW
Meteor 1-10 Rocket 4.4 02:52:06 10° N 02:57:40 68° E 03:01:26 21° SSE
Cosmos 1656 Rocket 3.6 02:56:02 42° SSW 02:58:05 88° ESE 03:03:46 10° NNE
CENTAUR R/B 4.5 02:58:03 10° WNW 03:03:11 18° WSW 03:03:11 18° WSW
Cosmos 1821 Rocket 4.0 02:57:34 10° N 03:03:55 87° E 03:08:03 24° S
IRS-1C 4.0 02:59:29 10° NNE 03:04:51 85° WNW 03:07:02 37° SSW
Cosmos 1408 3.9 03:06:55 27° WNW 03:06:55 27° WNW 03:10:01 10° NNW
Cosmos 1943 Rocket 3.3 03:05:09 24° W 03:07:18 32° WNW 03:12:16 10° N
NPP 3.9 03:02:06 10° N 03:07:20 54° WNW 03:09:17 35° SW
Delta 2 Rocket 4.1 03:08:34 39° S 03:08:53 40° SSE 03:13:29 10° E
CBERS-1 4.3 03:04:15 10° N 03:09:16 55° WNW 03:11:03 37° SW
ARIANE 5 R/B 2.6 03:06:34 10° NNE 03:11:33 70° ESE 03:14:00 30° S
ATLAS 5 CENTAUR R/B 3.6 03:09:06 32° S 03:11:46 68° ESE 03:28:52 10° NE
Cosmos 1869 Rocket 3.8 03:12:49 31° SSE 03:14:45 62° E 03:19:04 10° NNE
Lacrosse 4 Rocket 1.4 03:19:22 42° SSW 03:20:50 85° WNW 03:25:18 10° NNE
ADEOS 4.4 03:16:34 10° NNE 03:21:34 45° E 03:25:31 16° SSE
COSMOS 2455 3.8 03:16:23 10° NNW 03:22:14 49° ENE 03:28:02 10° SE
CZ-2D R/B 2.4 03:17:29 10° N 03:22:38 54° WNW 03:25:01 30° SW
Cosmos 1862 3.2 03:21:46 41° SSW 03:23:04 85° W 03:27:03 10° N
UNK 4.2 03:22:50 35° SW 03:24:04 43° W 03:28:32 10° NNW
Cosmos 1867 3.5 03:21:35 32° SSW 03:24:10 86° ESE 03:29:40 10° NNE
SL-24 DEB 4.4 03:23:25 35° SSW 03:25:00 52° W 03:29:33 10° NNW
PSLV R/B 3.4 03:25:02 38° WNW 03:25:52 57° N 03:28:48 10° ENE
ATLAS 2A CENTAUR R/B 4.5 03:25:09 18° S 03:27:01 19° S 03:31:46 10° SE
Cosmos 1763 Rocket 3.3 03:22:20 10° NNW 03:27:22 69° WSW 03:30:54 20° S
CZ-2D R/B 4.0 03:25:04 10° NNE 03:29:17 55° E 03:31:50 22° S
SEDSat Delta rocket 4.2 03:31:21 23° SSE 03:31:21 23° SSE 03:33:52 10° SE
SL-16 R/B 2.9 03:29:04 26° SSW 03:32:06 44° W 03:37:58 10° NNW
Cosmos 1703 Rocket 3.6 03:31:09 10° NNW 03:35:31 62° W 03:37:45 27° SSW
ADEOS II 2.9 03:32:14 10° NNE 03:37:19 46° E 03:42:10 11° S
Cosmos 1814 Rocket 4.0 03:32:19 10° NNW 03:37:34 62° WSW 03:41:49 15° S
Cosmos 1818 3.5 03:34:16 10° NW 03:39:43 70° WSW 03:45:07 10° SSE
BREEZE-M R/B 4.0 03:36:58 20° SSW 03:41:00 37° SSE 03:44:20 10° ENE
ATLAS CENTAUR R/B 3.6 03:39:04 10° SE 03:41:14 15° ESE 03:43:28 10° ENE
Spot 4 Rocket 4.2 03:37:09 10° N 03:42:12 59° WNW 03:45:13 24° SW
Cosmos 44 3.9 03:43:09 19° S 03:46:11 46° ESE 03:50:51 10° NE
Meteor 1-4 Rocket 2.4 03:47:58 25° S 03:49:59 89° W 03:53:39 10° N
SL-08 R/B 4.5 03:49:19 22° WSW 03:50:35 25° W 03:54:28 10° NW
Cosmos 540 Rocket 3.5 03:47:20 10° NNW 03:52:30 80° ENE 03:57:35 10° SSE
Cosmos 2369 Rocket 4.4 03:51:52 10° WNW 03:53:46 12° NW 03:55:40 10° NNW
IRS-1D 4.4 03:49:14 10° N 03:53:49 33° WNW 03:56:41 19° WSW
Cosmos 841 Rocket 3.6 03:49:52 10° NNW 03:54:58 56° WSW 04:00:00 10° S
UNKNOWN OBJECT B 2.8 03:51:01 10° N 03:54:59 74° WNW 03:57:39 20° SSW
MINOTAUR IV R/B 4.5 03:50:59 10° NNW 03:55:29 81° WSW 03:59:57 10° SSE
Okean 1-7 3.3 03:52:39 10° NNW 03:56:54 48° W 03:59:53 18° SSW
Cosmos 2227 Rocket 4.2 03:52:28 10° N 03:57:30 32° ENE 04:02:31 10° ESE
Cosmos 1605 Rocket 3.9 03:53:45 10° NNW 03:59:49 71° W 04:05:54 10° S
Resurs 1-4 Rocket 3.5 03:57:03 10° NNW 04:01:15 24° WNW 04:04:22 15° WSW
Cosmos 292 Rocket 4.3 03:58:51 10° NW 04:03:21 39° WSW 04:07:28 12° S
Cosmos 1733 Rocket 3.4 04:01:28 10° S 04:05:43 64° E 04:10:01 10° NNE
Helios 1A Rocket 3.0 04:04:33 10° N 04:08:31 57° WNW 04:11:32 17° SSW
SAR-Lupe-2 3.9 04:07:34 15° S 04:10:18 44° W 04:13:45 10° NNW
Cosmos 1184 Rocket 3.2 04:07:37 10° NNW 04:10:43 41° W 04:12:58 16° SSW
Cosmos 1354 Rocket 4.0 04:07:11 15° SSW 04:11:34 78° WNW 04:16:49 10° NNE
Cosmos 1153 Rocket 4.5 04:10:57 10° N 04:17:11 79° W 04:23:29 10° S
Cosmos 1674 Rocket 4.4 04:13:32 10° N 04:17:46 51° E 04:21:57 10° SSE
Cosmos 1437 Rocket 4.3 04:22:16 14° WSW 04:24:48 23° WNW 04:28:05 10° NNW
Cosmos 389 Rocket 2.5 04:22:41 10° SSW 04:26:16 73° W 04:29:55 10° N
GEOS 3 Rocket 4.0 04:27:54 10° NE 04:33:10 63° ESE 04:38:17 10° SSW
Okean O Rocket 3.8 04:31:48 10° NE 04:35:28 25° E 04:39:07 10° SSE
USA 229 DEB 3.9 04:28:55 10° NW 04:36:10 78° WSW 04:43:35 10° SSE
USA 229 3.9 04:29:01 10° NW 04:36:16 79° WSW 04:43:41 10° SSE
Cosmos 1656 4.0 04:34:09 10° SSW 04:39:48 71° ESE 04:45:28 10° NNE
SeaSat 1 3.2 04:36:34 10° SE 04:41:25 60° ENE 04:46:17 10° NNW
Cosmos 1633 3.3 04:40:07 10° SW 04:43:25 35° WNW 04:46:45 10° N
Cosmos 1812 3.3 04:40:13 10° NNW 04:43:50 38° W 04:47:25 10° SSW
ARIANE 5 R/B 4.5 04:47:40 10° NNW 04:50:04 14° WNW 04:52:27 10° W
Delta 2 Rocket 3.9 04:46:31 10° WSW 04:51:10 60° S 04:56:25 10° E
Cosmos 968 Rocket 3.7 04:47:09 10° SSW 04:52:19 60° WNW 04:57:33 10° N
Cosmos 1697 Rocket 3.3 04:48:33 10° S 04:54:05 58° ESE 04:59:39 10° NNE
Geosat 4.3 04:49:24 10° NNE 04:54:27 73° ESE 04:59:27 10° SSW
Cosmos 2173 Rocket 4.0 04:51:21 10° NNW 04:57:23 66° W 05:03:23 10° S
